South Haven, MI

6:22 PM EST on February 12, 2016 (GMT -0500)
South Haven

Weather History for KLWA - September, 2013

Change the Weather History Date:

Thursday, September 5, 2013

  Actual Average (KBIV) Record (KBIV)
Temperature  
Mean Temperature 61 °F 67 °F  
Max Temperature 70 °F 77 °F 92 °F (1948)
Min Temperature 52 °F 57 °F 37 °F (1984)
Degree Days  
Heating Degree Days 4 1  
Month to date heating degree days 5  
Since 1 July heating degree days 20  
Cooling Degree Days 0 3  
Month to date cooling degree days 19  
Year to date cooling degree days 637  
Growing Degree Days 11 (Base 50)    
Moisture  
Dew Point 51 °F    
Average Humidity 71    
Maximum Humidity 99    
Minimum Humidity 29    
Precipitation  
Precipitation 0.00 in 0.12 in 1.13 in (2008)
Month to date precipitation 0.57  
Year to date precipitation 23.78  
Sea Level Pressure  
Sea Level Pressure 30.22 in    
Wind  
Wind Speed 3 mph (NNE)    
Max Wind Speed 12 mph    
Max Gust Speed -    
Visibility 10 miles    
Events      
T = Trace of Precipitation, MM = Missing Value Source: NWS Daily Summary

Daily Weather History Graph

Daily Weather History Graph

Search for Another Location

Airport or City:

Trip Planner

Search our weather history database for the weather conditions in past years. The results will help you decide how hot, cold, wet, or windy it might be!

Date:

Astronomy

Sep. 05, 2013 Rise Set
Actual Time 7:14 AM EDT 8:11 PM EDT
Civil Twilight 6:46 AM EDT 8:40 PM EDT
Nautical Twilight 6:11 AM EDT 9:14 PM EDT
Astronomical Twilight 5:36 AM EDT 9:49 PM EDT
Moon 7:27 AM EDT (9/5) 8:01 PM EDT (9/5)
Length of Visible Light 13h 54m
Length of Day
12h 57m
New Moon, 0% of the Moon is Illuminated
Sep 5
New Moon
Sep 12
First Quarter
Sep 19
Full
Sep 26
Last Quarter
Oct 4
New

Hourly Weather History & Observations

Time (EDT) Temp. Dew Point Humidity Pressure Visibility Wind Dir Wind Speed Gust Speed Precip Events Conditions
12:15 AM 60.3 °F 59.9 °F 99% 30.14 in 10.0 mi Calm Calm - N/A   Clear
12:35 AM 59.4 °F 58.6 °F 97% 30.13 in 10.0 mi Calm Calm - N/A   Clear
12:55 AM 59.5 °F 59.0 °F 98% 30.14 in 7.0 mi Calm Calm - N/A   Clear
1:15 AM 58.1 °F 57.7 °F 99% 30.14 in 7.0 mi Calm Calm - N/A   Clear
1:35 AM 59.0 °F 58.6 °F 99% 30.14 in 10.0 mi Calm Calm - N/A   Scattered Clouds
1:55 AM 58.6 °F 58.1 °F 98% 30.14 in 10.0 mi Calm Calm - N/A   Scattered Clouds
2:15 AM 59.0 °F 58.1 °F 97% 30.14 in 10.0 mi Calm Calm - N/A   Scattered Clouds
2:35 AM 59.0 °F 58.1 °F 97% 30.14 in 10.0 mi Calm Calm - N/A   Scattered Clouds
2:55 AM 59.4 °F 58.6 °F 97% 30.15 in 10.0 mi Calm Calm - N/A   Scattered Clouds
3:15 AM 61.2 °F 60.1 °F 96% 30.15 in 10.0 mi NE 3.5 mph - N/A   Mostly Cloudy
3:34 AM 61.3 °F 60.1 °F 96% 30.15 in 10.0 mi NE 4.6 mph - N/A   Mostly Cloudy
3:55 AM 60.8 °F 59.4 °F 95% 30.16 in 10.0 mi NE 3.5 mph - N/A   Scattered Clouds
4:15 AM 60.1 °F 59.0 °F 96% 30.16 in 10.0 mi Calm Calm - N/A   Scattered Clouds
4:34 AM 59.9 °F 59.0 °F 97% 30.17 in 10.0 mi Calm Calm - N/A   Mostly Cloudy
4:55 AM 60.3 °F 59.5 °F 97% 30.17 in 10.0 mi Calm Calm - N/A   Overcast
5:15 AM 61.5 °F 60.1 °F 95% 30.17 in 10.0 mi Calm Calm - N/A   Overcast
5:35 AM 61.3 °F 60.1 °F 96% 30.18 in 10.0 mi NE 4.6 mph - N/A   Overcast
5:55 AM 61.5 °F 59.9 °F 94% 30.18 in 10.0 mi NE 6.9 mph - N/A   Overcast
6:14 AM 61.3 °F 58.5 °F 90% 30.19 in 10.0 mi NE 5.8 mph - N/A   Overcast
6:35 AM 60.8 °F 55.6 °F 83% 30.20 in 10.0 mi ENE 8.1 mph - N/A   Overcast
6:55 AM 60.8 °F 53.2 °F 76% 30.21 in 10.0 mi ENE 6.9 mph - N/A   Overcast
7:14 AM 59.5 °F 48.6 °F 67% 30.21 in 10.0 mi ENE 8.1 mph - N/A   Overcast
7:35 AM 58.1 °F 48.2 °F 70% 30.22 in 10.0 mi ENE 6.9 mph - N/A   Scattered Clouds
7:55 AM 58.3 °F 48.6 °F 70% 30.23 in 10.0 mi ENE 5.8 mph - N/A   Scattered Clouds
8:14 AM 58.3 °F 49.3 °F 72% 30.24 in 10.0 mi NE 5.8 mph - N/A   Scattered Clouds
8:35 AM 57.9 °F 50.0 °F 75% 30.24 in 10.0 mi NE 6.9 mph - N/A   Overcast
8:55 AM 57.9 °F 48.9 °F 72% 30.24 in 10.0 mi ENE 10.4 mph - N/A   Overcast
9:15 AM 58.3 °F 47.8 °F 68% 30.25 in 10.0 mi ENE 6.9 mph - N/A   Scattered Clouds
9:35 AM 60.3 °F 47.7 °F 63% 30.26 in 10.0 mi ENE 6.9 mph - N/A   Mostly Cloudy
9:55 AM 60.3 °F 47.3 °F 62% 30.27 in 10.0 mi East 11.5 mph - N/A   Overcast
10:15 AM 61.7 °F 48.0 °F 61% 30.27 in 10.0 mi ENE 9.2 mph - N/A   Mostly Cloudy
10:35 AM 62.8 °F 48.2 °F 59% 30.27 in 10.0 mi East 5.8 mph - N/A   Mostly Cloudy
10:55 AM 64.8 °F 47.3 °F 53% 30.27 in 10.0 mi ENE 8.1 mph - N/A   Scattered Clouds
11:15 AM 65.8 °F 47.7 °F 52% 30.27 in 10.0 mi NE 6.9 mph - N/A   Clear
11:35 AM 66.0 °F 44.8 °F 46% 30.27 in 10.0 mi East 8.1 mph - N/A   Clear
11:55 AM 67.8 °F 44.8 °F 43% 30.27 in 10.0 mi ENE 6.9 mph - N/A   Clear
12:15 PM 68.0 °F 42.3 °F 39% 30.27 in 10.0 mi ENE 6.9 mph - N/A   Clear
12:35 PM 68.2 °F 40.6 °F 37% 30.27 in 10.0 mi Calm Calm - N/A   Clear
12:55 PM 69.6 °F 41.2 °F 36% 30.27 in 10.0 mi NE 4.6 mph - N/A   Clear
1:15 PM 69.8 °F 36.0 °F 29% 30.27 in 10.0 mi NE 6.9 mph - N/A   Clear
1:35 PM 70.5 °F 38.8 °F 32% 30.27 in 10.0 mi NNE 4.6 mph - N/A   Clear
1:55 PM 70.9 °F 39.9 °F 32% 30.26 in 10.0 mi ENE 5.8 mph - N/A   Clear
2:15 PM 70.5 °F 45.0 °F 40% 30.26 in 10.0 mi Calm Calm - N/A   Clear
2:34 PM 70.7 °F 45.7 °F 41% 30.25 in 10.0 mi NNW 5.8 mph - N/A   Clear
2:55 PM 70.9 °F 47.8 °F 44% 30.25 in 10.0 mi NNW 10.4 mph - N/A   Clear
3:15 PM 70.2 °F 47.1 °F 44% 30.24 in 10.0 mi NNW 6.9 mph - N/A   Clear
3:34 PM 70.7 °F 46.6 °F 42% 30.24 in 10.0 mi NNW 8.1 mph - N/A   Clear
3:55 PM 70.2 °F 46.2 °F 42% 30.24 in 10.0 mi NNW 8.1 mph - N/A   Clear
4:14 PM 70.0 °F 45.9 °F 42% 30.24 in 10.0 mi NW 5.8 mph - N/A   Clear
4:35 PM 69.4 °F 46.9 °F 45% 30.24 in 10.0 mi NNW 8.1 mph - N/A   Clear
4:55 PM 68.9 °F 47.8 °F 47% 30.24 in 10.0 mi NNW 8.1 mph - N/A   Clear
5:14 PM 68.2 °F 48.0 °F 48% 30.23 in 10.0 mi North 9.2 mph - N/A   Clear
5:35 PM 68.0 °F 48.9 °F 50% 30.23 in 10.0 mi North 6.9 mph - N/A   Clear
5:55 PM 67.6 °F 50.0 °F 53% 30.24 in 10.0 mi NNW 6.9 mph - N/A   Clear
6:14 PM 67.6 °F 50.9 °F 55% 30.24 in 10.0 mi NW 6.9 mph - N/A   Clear
6:35 PM 66.6 °F 50.4 °F 56% 30.24 in 10.0 mi North 6.9 mph - N/A   Clear
6:54 PM 66.2 °F 51.6 °F 59% 30.23 in 10.0 mi North 4.6 mph - N/A   Clear
7:15 PM 65.3 °F 52.0 °F 62% 30.23 in 10.0 mi North 5.8 mph - N/A   Clear
7:35 PM 64.2 °F 52.7 °F 66% 30.23 in 10.0 mi North 4.6 mph - N/A   Clear
7:54 PM 62.8 °F 53.1 °F 71% 30.22 in 10.0 mi North 3.5 mph - N/A   Clear
8:15 PM 61.7 °F 53.6 °F 75% 30.23 in 10.0 mi North 3.5 mph - N/A   Clear
8:34 PM 60.8 °F 53.6 °F 77% 30.23 in 10.0 mi Calm Calm - N/A   Clear
8:55 PM 59.5 °F 53.6 °F 81% 30.23 in 10.0 mi Calm Calm - N/A   Clear
9:14 PM 58.8 °F 53.4 °F 82% 30.24 in 10.0 mi Calm Calm - N/A   Clear
9:35 PM 55.8 °F 53.6 °F 92% 30.24 in 10.0 mi Calm Calm - N/A   Clear
9:55 PM 55.6 °F 53.4 °F 92% 30.24 in 10.0 mi Calm Calm - N/A   Clear
10:14 PM 55.2 °F 53.2 °F 93% 30.24 in 10.0 mi Calm Calm - N/A   Clear
10:35 PM 54.5 °F 52.7 °F 94% 30.24 in 10.0 mi Calm Calm - N/A   Clear
10:55 PM 53.8 °F 52.3 °F 95% 30.25 in 10.0 mi Calm Calm - N/A   Clear
11:14 PM 52.5 °F 51.1 °F 95% 30.25 in 10.0 mi Calm Calm - N/A   Clear
11:35 PM 53.1 °F 51.6 °F 95% 30.24 in 10.0 mi East 3.5 mph - N/A   Clear
11:55 PM 54.1 °F 52.0 °F 92% 30.24 in 10.0 mi Calm Calm - N/A   Clear